Bookmark and Share
Track history (hours):
 

Sunflower Hakata

Last reported at 2014-Apr-19 09:32 UTC. Time now 2014-Apr-19 09:39 UTC.
Position N 35°37' E 139°48'.

Length 167 m; draft 6.5 m.

Type: Cargo ship. MMSI: 431501764.

NotesDate/timePositionNaut miles runAvg speedWind from/ knotsBaromVisibWave heightAir tempDewpointWater temp
2014-Apr-19 09:32N 35°37' E 139°48'0 0.0
2014-Apr-19 08:29N 35°37' E 139°48'0 0.0
2014-Apr-19 07:29N 35°37' E 139°48'0 0.0
2014-Apr-19 06:26N 35°37' E 139°48'0 0.0
2014-Apr-19 05:32N 35°37' E 139°48'0 0.0
2014-Apr-19 04:23N 35°37' E 139°48'0 0.0
2014-Apr-19 03:31N 35°37' E 139°48'0 0.0
2014-Apr-19 02:29N 35°37' E 139°48'0 0.0
2014-Apr-19 01:29N 35°37' E 139°48'0 0.0
2014-Apr-19 00:31N 35°37' E 139°48'0 0.0
2014-Apr-18 23:29N 35°37' E 139°48'0 0.0
2014-Apr-18 22:31N 35°37' E 139°48'0 0.0
2014-Apr-18 21:32N 35°37' E 139°48'0 0.0
2014-Apr-18 20:33N 35°37' E 139°48'8 8.0
2014-Apr-18 19:33N 35°30' E 139°53'1414.1
2014-Apr-18 18:33N 35°17' E 139°45'1616.4
2014-Apr-18 17:33N 35°01' E 139°40'24018.5
2014-Apr-18 04:33N 34°03' E 134°57'2323.1
2014-Apr-18 03:33N 34°26' E 135°01'1211.9
2014-Apr-18 02:33N 34°34' E 134°50'21813.5
2014-Apr-17 10:25N 33°60' E 130°30'1720.1
2014-Apr-17 09:33N 33°46' E 130°17'1110.8
2014-Apr-17 08:33N 33°38' E 130°24'0 0.0
2014-Apr-17 07:32N 33°38' E 130°24'0 0.0
2014-Apr-17 06:32N 33°38' E 130°24'0 0.0
2014-Apr-17 05:33N 33°38' E 130°24'0 0.0
2014-Apr-17 04:33N 33°38' E 130°24'0 0.0
2014-Apr-17 03:33N 33°38' E 130°24'0 0.0
2014-Apr-17 02:32N 33°38' E 130°24'0 0.0
2014-Apr-17 01:33N 33°38' E 130°24'0 0.0
2014-Apr-17 00:32N 33°38' E 130°24'0 0.0
2014-Apr-16 22:33N 33°38' E 130°24'0 0.0
2014-Apr-16 21:33N 33°38' E 130°24'0 0.0
2014-Apr-16 20:32N 33°38' E 130°24'8 8.1
2014-Apr-16 19:33N 33°41' E 130°15'2119.5
2014-Apr-16 18:28N 33°59' E 130°28'11515.6
2014-Apr-16 11:07N 32°51' E 132°20'1220.9
2014-Apr-16 10:33N 32°42' E 132°28'1817.0
2014-Apr-16 09:30N 32°41' E 132°49'1717.7
2014-Apr-16 08:33N 32°44' E 133°09'1615.9
2014-Apr-16 07:33N 32°51' E 133°26'27119.1
2014-Apr-15 17:21N 34°27' E 138°30'4019.9
2014-Apr-15 15:21N 34°46' E 139°12'1722.1
2014-Apr-15 14:33N 34°57' E 139°29'2010.1
2014-Apr-15 12:34N 35°11' E 139°46'1414.3
2014-Apr-15 11:34N 35°26' E 139°45'1111.4
2014-Apr-15 10:34N 35°37' E 139°48'0 0.0
2014-Apr-15 07:32N 35°37' E 139°48'0 0.0
2014-Apr-15 06:32N 35°37' E 139°48'0 0.0
2014-Apr-15 03:32N 35°37' E 139°48'0 0.0
2014-Apr-14 22:32N 35°37' E 139°48'0 0.1
2014-Apr-14 21:32N 35°37' E 139°48'0 0.0
2014-Apr-14 19:32N 35°37' E 139°48'0 0.0
2014-Apr-14 18:32N 35°37' E 139°48'0 0.0
2014-Apr-14 16:31N 35°37' E 139°48'0 0.0
2014-Apr-14 15:31N 35°37' E 139°48'0 0.0
2014-Apr-14 14:31N 35°37' E 139°48'0 0.0
2014-Apr-14 13:31N 35°37' E 139°48'0 0.0
2014-Apr-14 09:31N 35°37' E 139°48'0 0.0
2014-Apr-14 05:31N 35°37' E 139°48'0 0.0
2014-Apr-13 22:31N 35°37' E 139°48'0 0.0
2014-Apr-13 21:25N 35°37' E 139°48'0 0.0
2014-Apr-13 20:33N 35°37' E 139°48'7 7.1
2014-Apr-13 19:33N 35°31' E 139°52'1414.4
2014-Apr-13 18:34N 35°18' E 139°45'1615.6
2014-Apr-13 17:34N 35°03' E 139°41'2322.2
2014-Apr-13 16:33N 34°49' E 139°19'22320.3
2014-Apr-13 05:33N 33°54' E 134°57'2322.9
2014-Apr-13 04:34N 34°16' E 134°59'2120.5
2014-Apr-13 03:33N 34°37' E 134°59'2322.8
2014-Apr-13 02:33N 34°32' E 134°32'19212.8
2014-Apr-12 11:30N 34°03' E 130°42'2020.6
2014-Apr-12 10:33N 33°53' E 130°21'1616.3
2014-Apr-12 09:33N 33°37' E 130°22'2 1.5
2014-Apr-12 08:32N 33°38' E 130°24'0 0.0
2014-Apr-12 07:19N 33°38' E 130°24'0 0.0
2014-Apr-12 06:31N 33°38' E 130°24'0 0.0
2014-Apr-12 05:19N 33°38' E 130°24'0 0.0
2014-Apr-12 04:31N 33°38' E 130°24'0 0.0
2014-Apr-12 02:10N 33°38' E 130°24'0 0.0
2014-Apr-12 01:31N 33°38' E 130°24'0 0.0
2014-Apr-12 00:28N 33°38' E 130°24'0 0.0
2014-Apr-11 23:10N 33°38' E 130°24'0 0.0
2014-Apr-11 22:22N 33°38' E 130°24'0 0.0
2014-Apr-11 21:32N 33°38' E 130°24'0 0.0
2014-Apr-11 20:30N 33°38' E 130°24'8 8.7
2014-Apr-11 19:33N 33°41' E 130°15'1818.0
2014-Apr-11 18:32N 33°58' E 130°25'45516.2
2014-Apr-10 14:34N 34°59' E 139°31'1919.2
2014-Apr-10 13:33N 35°14' E 139°46'1414.3
2014-Apr-10 12:33N 35°28' E 139°49'9 8.6
2014-Apr-10 11:33N 35°37' E 139°48'0 0.0
2014-Apr-10 10:30N 35°37' E 139°48'0 0.0
2014-Apr-10 09:33N 35°37' E 139°48'0 0.0
2014-Apr-10 08:33N 35°37' E 139°48'0 0.0
2014-Apr-10 07:24N 35°37' E 139°48'0 0.0
2014-Apr-10 06:30N 35°37' E 139°48'0 0.0
2014-Apr-10 05:33N 35°37' E 139°48'0 0.0
2014-Apr-10 04:33N 35°37' E 139°48'0 0.0
2014-Apr-10 03:33N 35°37' E 139°48'0 0.0
2014-Apr-10 02:33N 35°37' E 139°48'0 0.0
2014-Apr-10 01:30N 35°37' E 139°48'0 0.0
2014-Apr-10 00:12N 35°37' E 139°48'0 0.0
2014-Apr-09 23:33N 35°37' E 139°48'0 0.0
2014-Apr-09 22:30N 35°37' E 139°48'0 0.0
2014-Apr-09 21:33N 35°37' E 139°48'0 0.0
2014-Apr-09 20:33N 35°37' E 139°48'8 8.0
2014-Apr-09 19:33N 35°30' E 139°52'1413.9
2014-Apr-09 18:33N 35°18' E 139°45'1312.6
2014-Apr-09 17:34N 35°05' E 139°45'2120.7
2014-Apr-09 16:33N 34°53' E 139°24'  

Dump ship's entire track history

sailing weather and tide predictions

Sunflower Hakata — JL6711 — position and weather